STARLINK-1564, 46058

Orbit data source: Space-Track

STARLINK-1564, 46058 is a payload satellite owned by SpaceX/Seattle (US) in LEO that was launched on Fri, 07 Aug 2020 UTC via an FALCON 9 launch vehicle from the Air Force Eastern Test Range (AFETR). Payloads include a variety of satellites, spacecraft, and rockets equipped with specific instruments for various scientific and technological missions. These include communications satellites like Starlink; space stations such as the ISS; scientific satellites like the Hubble; Earth observation satellites from companies like Planet Labs, Umbra, and HawkEye 360; GPS; miniature CubeSats for education and research; and military/defense satellites.

Loading next visibility...
STARLINK-1564 details
Identifier
46058, 2020-055AH
Orbit
LEO
Last TLE update9 hours ago
Origin
Flag of USSpaceX/Seattle (US)
ManufacturerSpaceX/Seattle
MissionOperational Commercial Communications
Bus & MotorSTARLINK, Unknown motor
Mass260 kg wet, ~248 kg dry
Launch date (UTC)
2020-08-07 (4 years ago)
Launch vehicle
FALCON 9
Launch site
Air Force Eastern Test Range (AFETR)
Object type
Payload
Rocket body
Debris
Shape & HBRBox + 1 Pan, 8.86 m
Radar Cross Section13.562 m², Large (>1 m²)

Expand to show TLE details & history

TLE from 9 hours ago
0 STARLINK-1564
1 46058U 20055AH  24361.07361787  .00008884  00000-0  61493-3 0  9994
2 46058  53.0550 286.1028 0001802  99.6783 260.4409 15.06376690242380
Epoch: 2024-12-26T01:46Z
Definitive object data (Epoch: 2024-12-26T01:46:00.583Z)
Latitude-0.00009°
Longitude164.54206°
Altitude548.37 km
Speed7.589 km/s
True Right ascension19h 04m 24s
True Declination0° 00' 00"
Sunlit
Object was in daylight at TLE epoch
Visualization TLE readout
Latitude-40.4369°
Longitude22.45547°
Altitude561.458 km
Speed7.58 km/s
Apparent Right ascension05h 49m 39s
Apparent Declination-84° 43' 28"
Sunlit
Object is in daylight
Visualization observer readout
Local Sidereal Time10:06:59
Azimuth185.994° SSW
Elevation-37.474°
Doppler factor1
Orbital elements
Apogee altitude548.802 km
Perigee altitude546.306 km
Semi-major axis6,925.691 km
Eccentricity0.0001802
Inclination53.055°
RAAN286.1028°
Arg. of periapsis99.6783°
True anomaly260.42054°
Mean anomaly260.4409°
Eccentric anomaly260.43072°
Mean motion3.76572 °/min
BSTAR0.00061493
Orbital period95.6 mins
Loading maneuver chart data...
Loading historical data...
Loading historical data...
Loading historical data...
Loading historical data...
Loading historical data...
Loading historical data...
Loading historical data...

STARLINK-1564 Visibility forecast

Observer location: undefined°, undefined

Span
Click to sort rows by Start time (UTC) header in descending order
Start Az.
Max El. time (UTC)
Max El. Az.
Max El.
End time (UTC)
End Az.
6 mins2024-12-26 21:01:45.430Z183.621° SSW2024-12-26 21:04:45.430Z124.429° SE25.012°2024-12-26 21:07:45.430Z73.409° E
6 mins2024-12-26 22:41:45.430Z267.714° W2024-12-26 22:43:45.430Z320.172° NNW33.963°2024-12-26 22:47:45.430Z39.379° NE
5 mins2024-12-27 03:43:45.430Z340.724° N2024-12-27 03:45:45.430Z30.358° NE28.878°2024-12-27 03:48:45.430Z90.546° ESE
6 mins2024-12-27 05:22:45.430Z287.025° WNW2024-12-27 05:25:45.430Z209.266° SW31.307°2024-12-27 05:28:45.430Z159.881° S
|